STARLINK-31877, 59675

Orbit data source: Space-Track

STARLINK-31877, 59675 is a payload satellite owned by SpaceX/Seattle (US) in LEO that was launched on Mon, 06 May 2024 UTC via an FALCON 9 launch vehicle from the Air Force Eastern Test Range (AFETR). Payload-class satellites include a variety of spacecraft equipped with specific instruments for various scientific and technological missions. These include communications satellites like Starlink; space stations such as the ISS; scientific satellites like the Hubble; Earth observation satellites from companies like Planet Labs, Umbra, and HawkEye 360; GPS; miniature CubeSats for education and research; and military/defense satellites.

Loading next visibility...
Identifier
59675, 2024-084X
Orbit
LEO
Country
Flag of USUS
Related business
Manufacturer
SpaceX/Seattle
Mission
Operational Commercial Communications
Bus & Motor
STARLINK V2M, Unknown motor
Mass
730 kg wet, ~700 kg dry
Launch date (UTC)
2024-05-06 (2 years ago)
Launch vehicle
FALCON 9
Launch site
Air Force Eastern Test Range (AFETR)
Object type
Payload
Rocket body
Debris
Shape & HBR
Box + 2 Pan, 17.7 m
Radar Cross Section
33.884 m², Large (>1 m²)

Expand to show TLE details & history
Last TLE update: 2 days ago

TLE from 2 days ago
0 STARLINK-31877
1 59675U 24084X   26171.09705536  .00000331  00000-0  21557-4 0  9993
2 59675  43.0021 183.5701 0001666 279.9948  80.0716 15.27575070120033
Epoch: 2026-06-20T02:19Z
TLE epoch observation values (Epoch: 2026-06-20T02:19:45.583Z)
Latitude
0.00002°
Longitude
-119.68638°
Altitude
482.643 km
Speed
7.626 km/s
True Right ascension
12h 14m 16s
True Declination
0° 00' 00"
Sunlit
Object was in daylight at epoch
Visualization orbit readout
Latitude
Unknown
Longitude
Unknown
Altitude
Unknown
Speed
Unknown
Apparent Right ascension
Unknown
Apparent Declination
Unknown
Sunlit
N/A
Visualization observer readout
Local Sidereal Time
21:50:09
Azimuth
Unknown
Elevation
Unknown
Doppler factor
Unknown
Orbital elements
Apogee altitude
486.152 km
Perigee altitude
483.865 km
Semi-major axis
6,863.146 km
Eccentricity
0.00017
Inclination
43.0021°
RAAN
183.5701°
Arg. of periapsis
279.9948°
True anomaly
80.09041°
Mean anomaly
80.0716°
Eccentric anomaly
80.081°
Mean motion
3.81732 °/min
Orbital period
94.31 mins
BSTAR
0.000021557
Loading maneuver chart data...
Computing Atmospheric mass density...
Loading historical data...
Loading historical data...
Loading historical data...
Loading historical data...
Loading historical data...
Loading historical data...
Loading historical data...

Documentation

Showing up to 5 results
|